User: anonymous   Login
Location: Unspecified
(0.0000°N, 0.0000°E)
Time: 09:09:51
(UTC+00:00)
Language:

Tansei-1 - Orbit

View from above orbital plane
View from above orbital plane
View from above satellite
View from above satellite

Ground track
Ground track

The orbit data is extracted from the following two-line orbital elements,

1  4952U 71011A   17086.00292795 +.00000091 +00000-0 +31940-4 0  9997
2  4952 029.6673 284.6069 0079946 210.2341 310.7030 13.58467250290554
Epoch (UTC): 27 March 2017 00:04:12
Eccentricity: 0.0079946
inclination: 29.6673°
perigee height: 982 km
apogee height: 1100 km
right ascension of ascending node: 284.6069°
argument of perigee: 210.2341°
revolutions per day: 13.58467250
mean anomaly at epoch: 310.7030°
orbit number at epoch: 29055

The dashed part of the orbit path shows where the satellite is in the earth's shadow,  

DLR